Location: Saluda
(35.2377°N, 82.3468°W)
Time: 23:57:57
(UTC+00:00)

Tiros 1 - Pass Details

Date: 03 October 2022
Orbit: 629 x 662 km, 48.4° (Epoch: 09 December)

Event Time Altitude Azimuth Distance (km) Brightness Sun altitude
Exits shadow 08:12:58 12° 41° (NE) 1,898 10.1 -39.1°
Drops below altitude 10° 08:13:41 10° 48° (NE) 2,055 10.4 -38.9°
Sets 08:16:46 0° 69° (ENE) 2,957 11.5 -38.4°
